• In Österreich
  • Länderverzeichnis
  • Für 7 Tage
  • Wassertemperatur
  • Satellitenkarten
  • Wetterkarte
  • News
  • Widgets
  • user-avatar
    Anmelden

    Stündliche Wetter Chyzhykiv

    Heute, 21 August, Dienstag

    Zeit Temperatur Niederschläge Wind Luftdruck Luftfeuchtigkeit
    00:00 +21°C° 0 mm 2 m/S 740 mmHg 80%
    01:00 +20°C° 0 mm 2 m/S 740 mmHg 81%
    02:00 +21°C° 0 mm 1 m/S 740 mmHg 83%
    03:00 +21°C° 0 mm 1 m/S 740 mmHg 83%
    04:00 +19°C° 0 mm 2 m/S 740 mmHg 83%
    05:00 +19°C° 0 mm 2 m/S 741 mmHg 84%
    06:00 +20°C° 0 mm 2 m/S 741 mmHg 82%
    07:00 +21°C° 0 mm 3 m/S 741 mmHg 81%
    08:00 +21°C° 0 mm 3 m/S 742 mmHg 80%
    09:00 +24°C° 0 mm 3 m/S 742 mmHg 76%
    10:00 +25°C° 0 mm 4 m/S 742 mmHg 72%
    11:00 +26°C° 0 mm 4 m/S 742 mmHg 68%
    12:00 +26°C° 0 mm 4 m/S 742 mmHg 66%
    13:00 +27°C° 0 mm 4 m/S 742 mmHg 65%
    14:00 +27°C° 0 mm 4 m/S 742 mmHg 63%
    15:00 +27°C° 0,1 mm 4 m/S 742 mmHg 65%
    16:00 +26°C° 0,1 mm 4 m/S 742 mmHg 66%
    17:00 +26°C° 0,1 mm 3 m/S 742 mmHg 68%
    18:00 +24°C° 0 mm 3 m/S 742 mmHg 72%
    19:00 +23°C° 0 mm 2 m/S 742 mmHg 76%
    20:00 +20°C° 0 mm 2 m/S 743 mmHg 81%
    21:00 +20°C° 0 mm 2 m/S 743 mmHg 82%
    22:00 +20°C° 0 mm 1 m/S 743 mmHg 83%
    23:00 +19°C° 0 mm 1 m/S 743 mmHg 84%

    Morgen, 22 August, Mittwoch

    Zeit Temperatur Niederschläge Wind Luftdruck Luftfeuchtigkeit
    00:00 +19°C° 0 mm 1 m/S 743 mmHg 84%
    01:00 +18°C° 0 mm 1 m/S 744 mmHg 85%
    02:00 +16°C° 0 mm 1 m/S 744 mmHg 85%
    03:00 +16°C° 0 mm 1 m/S 744 mmHg 86%
    04:00 +16°C° 0 mm 1 m/S 744 mmHg 86%
    05:00 +15°C° 0 mm 1 m/S 744 mmHg 87%
    06:00 +16°C° 0 mm 1 m/S 744 mmHg 83%
    07:00 +17°C° 0 mm 2 m/S 745 mmHg 80%
    08:00 +19°C° 0 mm 2 m/S 745 mmHg 77%
    09:00 +20°C° 0 mm 2 m/S 745 mmHg 72%
    10:00 +21°C° 0 mm 2 m/S 745 mmHg 66%
    11:00 +24°C° 0 mm 2 m/S 745 mmHg 61%
    12:00 +24°C° 0 mm 2 m/S 745 mmHg 60%
    13:00 +24°C° 0 mm 2 m/S 745 mmHg 58%
    14:00 +25°C° 0 mm 2 m/S 745 mmHg 57%
    15:00 +25°C° 0 mm 2 m/S 744 mmHg 59%
    16:00 +25°C° 0 mm 2 m/S 744 mmHg 61%
    17:00 +24°C° 0 mm 3 m/S 744 mmHg 63%
    18:00 +22°C° 0 mm 3 m/S 744 mmHg 68%
    19:00 +20°C° 0 mm 3 m/S 744 mmHg 72%
    20:00 +19°C° 0 mm 2 m/S 744 mmHg 77%
    21:00 +18°C° 0 mm 3 m/S 744 mmHg 78%
    22:00 +17°C° 0 mm 3 m/S 744 mmHg 79%
    23:00 +17°C° 0 mm 3 m/S 744 mmHg 80%

    übermorgen, 23 August, Donnerstag

    Zeit Temperatur Niederschläge Wind Luftdruck Luftfeuchtigkeit
    00:00 +17°C° 0 mm 3 m/S 744 mmHg 80%
    01:00 +17°C° 0 mm 3 m/S 744 mmHg 80%
    02:00 +17°C° 0 mm 3 m/S 744 mmHg 80%
    03:00 +17°C° 0 mm 3 m/S 744 mmHg 79%
    04:00 +17°C° 0 mm 3 m/S 744 mmHg 79%
    05:00 +17°C° 0 mm 3 m/S 743 mmHg 79%
    06:00 +18°C° 0 mm 4 m/S 743 mmHg 78%
    07:00 +18°C° 0 mm 4 m/S 743 mmHg 78%
    08:00 +19°C° 0 mm 4 m/S 743 mmHg 77%
    09:00 +20°C° 0 mm 4 m/S 743 mmHg 74%
    10:00 +22°C° 0 mm 4 m/S 743 mmHg 71%
    11:00 +23°C° 0 mm 4 m/S 743 mmHg 67%
    12:00 +25°C° 0 mm 4 m/S 743 mmHg 65%
    13:00 +26°C° 0 mm 4 m/S 742 mmHg 63%
    14:00 +27°C° 0 mm 4 m/S 742 mmHg 61%
    15:00 +27°C° 0 mm 3 m/S 742 mmHg 63%
    16:00 +27°C° 0 mm 3 m/S 741 mmHg 64%
    17:00 +27°C° 0 mm 3 m/S 741 mmHg 66%
    18:00 +25°C° 0 mm 3 m/S 741 mmHg 72%
    19:00 +24°C° 0 mm 3 m/S 741 mmHg 79%
    20:00 +21°C° 0 mm 2 m/S 741 mmHg 85%
    21:00 +20°C° 0 mm 2 m/S 741 mmHg 86%
    22:00 +20°C° 0 mm 2 m/S 741 mmHg 86%
    23:00 +19°C° 0 mm 2 m/S 741 mmHg 87%

    24 August, Freitag

    Zeit Temperatur Niederschläge Wind Luftdruck Luftfeuchtigkeit
    00:00 +19°C° 0 mm 2 m/S 741 mmHg 86%
    01:00 +18°C° 0 mm 2 m/S 740 mmHg 84%
    02:00 +18°C° 0 mm 2 m/S 740 mmHg 83%
    03:00 +18°C° 0 mm 2 m/S 740 mmHg 82%
    04:00 +17°C° 0 mm 2 m/S 740 mmHg 80%
    05:00 +17°C° 0 mm 2 m/S 740 mmHg 79%
    06:00 +18°C° 0 mm 3 m/S 739 mmHg 77%
    07:00 +19°C° 0 mm 3 m/S 739 mmHg 76%
    08:00 +20°C° 0 mm 3 m/S 739 mmHg 74%
    09:00 +22°C° 0 mm 3 m/S 739 mmHg 70%
    10:00 +25°C° 0 mm 3 m/S 739 mmHg 66%
    11:00 +27°C° 0 mm 3 m/S 739 mmHg 63%
    12:00 +28°C° 0 mm 3 m/S 739 mmHg 61%
    13:00 +28°C° 0 mm 3 m/S 738 mmHg 59%
    14:00 +29°C° 0 mm 3 m/S 738 mmHg 57%
    15:00 +29°C° 0,2 mm 3 m/S 738 mmHg 61%
    16:00 +28°C° 0,2 mm 3 m/S 738 mmHg 64%
    17:00 +28°C° 0,2 mm 3 m/S 737 mmHg 68%
    18:00 +27°C° 0 mm 3 m/S 737 mmHg 71%
    19:00 +25°C° 0 mm 3 m/S 737 mmHg 75%
    20:00 +22°C° 0 mm 3 m/S 737 mmHg 78%
    21:00 +22°C° 0 mm 3 m/S 737 mmHg 78%
    22:00 +21°C° 0 mm 3 m/S 737 mmHg 77%
    23:00 +20°C° 0 mm 3 m/S 736 mmHg 76%

    25 August, Samstag

    Zeit Temperatur Niederschläge Wind Luftdruck Luftfeuchtigkeit
    00:00 +20°C° 0 mm 3 m/S 736 mmHg 77%
    01:00 +20°C° 0 mm 3 m/S 736 mmHg 78%
    02:00 +19°C° 0 mm 3 m/S 736 mmHg 79%
    03:00 +19°C° 0 mm 2 m/S 736 mmHg 79%
    04:00 +18°C° 0 mm 2 m/S 736 mmHg 80%
    05:00 +18°C° 0 mm 2 m/S 736 mmHg 81%
    06:00 +19°C° 0,1 mm 2 m/S 736 mmHg 80%
    07:00 +20°C° 0,1 mm 2 m/S 736 mmHg 79%
    08:00 +23°C° 0,1 mm 2 m/S 736 mmHg 77%
    09:00 +24°C° 0,4 mm 2 m/S 736 mmHg 74%
    10:00 +25°C° 0,4 mm 2 m/S 736 mmHg 70%
    11:00 +27°C° 0,4 mm 2 m/S 736 mmHg 66%
    12:00 +27°C° 1,3 mm 2 m/S 736 mmHg 65%
    13:00 +28°C° 1,3 mm 2 m/S 735 mmHg 63%
    14:00 +28°C° 1,3 mm 2 m/S 735 mmHg 61%
    15:00 +28°C° 0,3 mm 2 m/S 735 mmHg 65%
    16:00 +27°C° 0,3 mm 2 m/S 735 mmHg 68%
    17:00 +27°C° 0,3 mm 2 m/S 735 mmHg 71%
    18:00 +26°C° 0,3 mm 2 m/S 735 mmHg 73%
    19:00 +24°C° 0,3 mm 2 m/S 735 mmHg 75%
    20:00 +23°C° 0,3 mm 2 m/S 735 mmHg 77%
    21:00 +21°C° 0,1 mm 2 m/S 735 mmHg 77%
    22:00 +20°C° 0,1 mm 2 m/S 734 mmHg 77%
    23:00 +19°C° 0,1 mm 2 m/S 734 mmHg 77%

    26 August, Sonntag

    Zeit Temperatur Niederschläge Wind Luftdruck Luftfeuchtigkeit
    00:00 +19°C° 0 mm 2 m/S 734 mmHg 77%
    01:00 +18°C° 0 mm 2 m/S 734 mmHg 78%
    02:00 +18°C° 0 mm 2 m/S 734 mmHg 78%
    03:00 +17°C° 0 mm 2 m/S 733 mmHg 79%
    04:00 +17°C° 0 mm 2 m/S 733 mmHg 80%
    05:00 +17°C° 0 mm 2 m/S 733 mmHg 81%
    06:00 +18°C° 0 mm 2 m/S 733 mmHg 79%
    07:00 +19°C° 0 mm 3 m/S 734 mmHg 77%
    08:00 +20°C° 0 mm 3 m/S 734 mmHg 75%
    09:00 +22°C° 0 mm 3 m/S 734 mmHg 71%
    10:00 +25°C° 0 mm 3 m/S 734 mmHg 66%
    11:00 +27°C° 0 mm 3 m/S 734 mmHg 62%
    12:00 +27°C° 0,2 mm 3 m/S 733 mmHg 60%
    13:00 +28°C° 0,2 mm 4 m/S 733 mmHg 58%
    14:00 +29°C° 0,2 mm 4 m/S 733 mmHg 56%
    15:00 +29°C° 0,3 mm 4 m/S 733 mmHg 59%
    16:00 +29°C° 0,3 mm 4 m/S 733 mmHg 62%
    17:00 +28°C° 0,3 mm 4 m/S 733 mmHg 66%
    18:00 +26°C° 0,7 mm 4 m/S 733 mmHg 68%
    19:00 +25°C° 0,7 mm 4 m/S 733 mmHg 70%
    20:00 +22°C° 0,7 mm 4 m/S 733 mmHg 72%
    21:00 +21°C° 1,1 mm 3 m/S 733 mmHg 74%
    22:00 +20°C° 1,1 mm 3 m/S 733 mmHg 75%
    23:00 +20°C° 1,1 mm 3 m/S 733 mmHg 77%
    Mehr zeigen